STARLINK-4127 (53258 NORAD) Tracking and Keplerian Element Data

This shows tracking and keplerian element data for the satellite.

Feedback or suggestion? Click here.




ElementValue
Catalog53258
NameSTARLINK-4127
Epoch Orbit1074
Epoch Day270.25001157
Epoch Year2022
RAAN88.1328
Inclination53.2174
Eccentricity0.0001384
Argument of Perigee77.8541
Mean Anonmoly114.1147
Mean Motion15.1928794
Decay Rate-0.01061817
L11 53258U 22086S 22270.25001157 -.01061817 00000+0 -54305-1 0 9998
L22 53258 53.2174 88.1328 0001384 77.8541 114.1147 15.19287940 10742

Live tracking and technical data element details for STARLINK-4127 (NORAD 53258). STARLINK-4127 can be tracked NOW for your location showing map with azimuth and elevation plus other details from your city location.

Track the satellite on the map from your city or location and see movement details for azimuth, elevation, latitude, longitude, range, height, and movement on the map or in text.







IsCatalogInMostPopularTable: catalog: 53258, numindb: 2
Update: records affected: 1



GetName: 53258 STARLINK-4127

Hit Count: updated at: Thu, 29 Sep 2022 11:25:24 GMT